Powrót do katalogu

STARLINK-34197

AktywnyŁącznośćVLEO
NORAD 64184·PAYLOAD·🇺🇸 United States

Wystrzelony May 28, 2025 z Cape Canaveral Space Force Station

Loading…

Następne Przeloty (najbliższe 24 godziny)

TLE

ŚwieżeSource: CelesTrak SupGP

Epoka: Sep 14, 2026, 21:20 UTC

1 64184C 25113Q   26257.88937500  .00026588  00000+0  78577-3 0  2579
2 64184  53.1581 292.0237 0001200  97.0598   9.3676 15.34369008    15

Śledź STARLINK-34197 w czasie rzeczywistym z AllMySat

Download on the App Store